DW7898 Weather Reports


Display with metric or nautical units.
time (UTC)temp
F
wind
direction
speed
MPH
gust
MPH
rain 1hr
in
rain 24hr
in
rain mn
in
humidity
%
barometer
mb
20260901101350 84 222 4.0 11.0 0.00 0.00 0.00 48 1022.5
20260901100348 84 21 3.0 8.0 0.00 0.00 0.00 47 1022.2
20260901095358 83 209 2.0 11.0 0.00 0.00 0.00 48 1022.3
20260901094351 83 227 4.0 8.0 0.00 0.00 0.00 47 1022.2
20260901093352 83 240 3.0 7.0 0.00 0.00 0.00 49 1022.1
20260901092349 83 216 5.0 8.0 0.00 0.00 0.00 49 1022.0
20260901091344 83 114 0.0 5.0 0.00 0.00 0.00 51 1022.0
20260901090402 82 214 2.0 7.0 0.00 0.00 0.00 52 1021.8
20260901085352 82 143 1.0 5.0 0.00 0.00 0.00 54 1021.7
20260901084345 81 57 2.0 4.0 0.00 0.00 0.00 57 1021.6
20260901083345 80 57 1.0 3.0 0.00 0.00 0.00 61 1021.5
20260901082342 79 58 1.0 3.0 0.00 0.00 0.00 64 1021.6
20260901081342 79 55 0.0 2.0 0.00 0.00 0.00 67 1021.5
20260901080342 78 55 0.0 2.0 0.00 0.00 0.00 69 1021.5
20260901075357 78 56 0.0 2.0 0.00 0.00 0.00 72 1021.4
20260901074348 77 56 0.0 2.0 0.00 0.00 0.00 74 1021.6
20260901073351 76 56 1.0 4.0 0.00 0.00 0.00 77 1021.7
20260901072341 75 53 0.0 4.0 0.00 0.00 0.00 79 1021.6
20260901071340 75 49 1.0 3.0 0.00 0.00 0.00 80 1021.4
20260901070345 74 50 0.0 3.0 0.00 0.00 0.00 80 1021.6
20260901065338 74 50 0.0 0.0 0.00 0.00 0.00 81 1021.6
20260901064359 73 50 0.0 0.0 0.00 0.00 0.00 82 1021.7
20260901063343 73 50 0.0 2.0 0.00 0.00 0.00 82 1021.7
20260901062358 72 50 0.0 0.0 0.00 0.00 0.00 82 1021.7
20260901061359 72 50 0.0 2.0 0.00 0.00 0.00 82 1021.7
20260901060340 72 51 0.0 2.0 0.00 0.00 0.00 82 1021.6
20260901055342 72 51 1.0 2.0 0.00 0.00 0.00 83 1021.5
20260901054347 72 51 1.0 2.0 0.00 0.00 0.00 83 1021.5
20260901053343 72 51 0.0 2.0 0.00 0.00 0.00 82 1021.4
20260901052338 72 51 0.0 1.0 0.00 0.00 0.00 82 1021.4
20260901051357 71 51 0.0 1.0 0.00 0.00 0.00 82 1021.3
20260901050338 71 51 0.0 1.0 0.00 0.00 0.00 82 1021.3
20260901045357 72 51 0.0 0.0 0.00 0.00 0.00 82 1021.3
20260901044342 72 51 0.0 0.0 0.00 0.00 0.00 81 1021.3
20260901043345 72 51 0.0 1.0 0.00 0.00 0.00 81 1021.5
20260901042340 72 51 0.0 1.0 0.00 0.00 0.00 81 1021.5
20260901041341 72 51 0.0 1.0 0.00 0.00 0.00 81 1021.5
20260901040344 72 51 0.0 0.0 0.00 0.00 0.00 81 1021.4
20260901035359 72 51 0.0 0.0 0.00 0.00 0.00 81 1021.5
20260901034356 72 51 0.0 0.0 0.00 0.00 0.00 81 1021.5
20260901033352 72 51 0.0 0.0 0.00 0.00 0.00 81 1021.6
20260901032346 72 51 0.0 1.0 0.00 0.00 0.00 80 1021.6
20260901031346 73 51 1.0 2.0 0.00 0.00 0.00 80 1021.7
20260901030349 73 50 0.0 2.0 0.00 0.00 0.00 79 1021.6
20260901025343 73 50 1.0 3.0 0.00 0.00 0.00 79 1021.8
20260901024356 73 50 1.0 4.0 0.00 0.00 0.00 78 1021.8
20260901023340 73 98 1.0 3.0 0.00 0.00 0.00 78 1021.9
20260901022340 73 99 1.0 3.0 0.00 0.00 0.00 78 1022.0
20260901021341 73 99 0.0 2.0 0.00 0.00 0.00 78 1022.3
20260901020343 74 100 0.0 3.0 0.00 0.00 0.00 77 1022.3
20260901015339 74 100 0.0 1.0 0.00 0.00 0.00 77 1022.4
20260901014359 74 100 0.0 1.0 0.00 0.00 0.00 77 1022.4
20260901013338 74 100 0.0 2.0 0.00 0.00 0.00 77 1022.4
20260901012349 74 100 0.0 4.0 0.00 0.00 0.00 76 1022.4
20260901011347 74 100 1.0 4.0 0.00 0.00 0.00 75 1022.5
20260901010342 74 100 1.0 2.0 0.00 0.00 0.00 76 1022.5
20260901005359 74 100 0.0 2.0 0.00 0.00 0.00 76 1022.5
20260901004355 74 100 1.0 3.0 0.00 0.00 0.00 75 1022.5
20260901003352 74 100 0.0 4.0 0.00 0.00 0.00 76 1022.6
20260901002345 75 99 2.0 4.0 0.00 0.00 0.00 75 1022.5
20260901001352 75 98 2.0 3.0 0.00 0.00 0.00 75 1022.5
20260901000351 75 98 0.0 2.0 0.00 0.00 0.00 75 1022.6
20260831235340 75 98 0.0 2.0 0.00 0.00 0.00 75 1022.6
20260831234341 75 98 1.0 3.0 0.00 0.00 0.00 75 1022.7
20260831233343 75 97 0.0 2.0 0.00 0.00 0.00 75 1022.6
20260831232357 75 98 2.0 3.0 0.00 0.00 0.00 75 1022.6
20260831231339 76 98 1.0 2.0 0.00 0.00 0.00 75 1022.5
20260831230340 76 98 0.0 1.0 0.00 0.00 0.00 75 1022.6
20260831225357 76 98 0.0 3.0 0.00 0.00 0.00 75 1022.6
20260831224356 76 97 3.0 5.0 0.00 0.00 0.00 74 1022.7
20260831223351 76 90 3.0 4.0 0.00 0.00 0.00 74 1022.5
20260831222343 77 89 1.0 3.0 0.00 0.00 0.00 74 1022.5
20260831221344 77 89 1.0 4.0 0.00 0.00 0.00 74 1022.4
20260831220343 77 89 2.0 3.0 0.00 0.00 0.00 74 1022.6
20260831215340 78 89 0.0 3.0 0.00 0.00 0.00 74 1022.5
20260831214342 78 89 0.0 2.0 0.00 0.00 0.00 73 1022.4
20260831213347 78 89 0.0 1.0 0.00 0.00 0.00 73 1022.4
20260831212339 78 89 0.0 1.0 0.00 0.00 0.00 73 1022.4
20260831211343 78 89 0.0 1.0 0.00 0.00 0.00 72 1022.2
20260831210346 78 89 0.0 3.0 0.00 0.00 0.00 73 1022.3
20260831205358 78 89 0.0 3.0 0.00 0.00 0.00 72 1022.2
20260831204340 78 89 0.0 2.0 0.00 0.00 0.00 72 1022.2
20260831203338 78 89 1.0 3.0 0.00 0.00 0.00 72 1022.0
20260831202357 78 89 0.0 2.0 0.00 0.00 0.00 71 1022.0
20260831201338 78 89 2.0 5.0 0.00 0.00 0.00 71 1021.9
20260831200356 78 90 3.0 4.0 0.00 0.00 0.00 71 1021.9
20260831195349 78 91 2.0 6.0 0.00 0.00 0.00 71 1021.6
20260831194353 78 134 2.0 4.0 0.00 0.00 0.00 71 1021.7
20260831193357 78 137 1.0 4.0 0.00 0.00 0.00 71 1021.5
20260831192355 79 144 1.0 4.0 0.00 0.00 0.00 70 1021.3
20260831191340 79 138 1.0 5.0 0.00 0.00 0.00 70 1021.2
20260831190343 79 172 3.0 7.0 0.00 0.00 0.00 70 1021.0
20260831185342 79 161 4.0 8.0 0.00 0.00 0.00 68 1021.0
20260831184340 79 148 3.0 6.0 0.00 0.00 0.00 67 1020.9
20260831183341 79 118 1.0 7.0 0.00 0.00 0.00 66 1020.8
20260831182358 79 113 2.0 9.0 0.00 0.00 0.00 65 1020.7
20260831181337 80 96 5.0 10.0 0.00 0.00 0.00 65 1020.6
20260831180338 80 238 3.0 7.0 0.00 0.00 0.00 63 1020.5
20260831175358 80 215 3.0 8.0 0.00 0.00 0.00 63 1020.4
20260831174356 80 107 2.0 9.0 0.00 0.00 0.00 61 1020.3
20260831173357 81 103 6.0 9.0 0.00 0.00 0.00 59 1020.3
20260831172348 82 133 6.0 10.0 0.00 0.00 0.00 58 1020.3
20260831171349 82 111 3.0 9.0 0.00 0.00 0.00 55 1020.3
20260831170348 82 156 4.0 11.0 0.00 0.00 0.00 55 1020.4
20260831165403 82 240 4.0 11.0 0.00 0.00 0.00 56 1020.4
20260831164354 82 126 5.0 12.0 0.00 0.00 0.00 56 1020.5
20260831163353 83 171 3.0 8.0 0.00 0.00 0.00 52 1020.5
20260831162342 83 110 2.0 9.0 0.00 0.00 0.00 52 1020.5
20260831161343 83 229 6.0 12.0 0.00 0.00 0.00 52 1020.6
20260831160345 83 97 3.0 12.0 0.00 0.00 0.00 54 1020.4
20260831155341 84 162 4.0 10.0 0.00 0.00 0.00 55 1020.6
20260831154352 84 207 2.0 14.0 0.00 0.00 0.00 55 1020.6
20260831153346 84 260 3.0 16.0 0.00 0.00 0.00 56 1020.7
20260831152340 84 233 4.0 10.0 0.00 0.00 0.00 58 1020.5
20260831151401 84 146 4.0 9.0 0.00 0.00 0.00 59 1020.5
20260831150356 85 220 4.0 9.0 0.00 0.00 0.00 57 1020.5
20260831145345 85 178 3.0 12.0 0.00 0.00 0.00 58 1020.5
20260831144344 85 249 6.0 12.0 0.00 0.00 0.00 57 1020.4
20260831143341 85 198 4.0 10.0 0.00 0.00 0.00 57 1020.4
20260831142341 84 212 5.0 16.0 0.00 0.00 0.00 58 1020.5
20260831141339 85 213 9.0 14.0 0.00 0.00 0.00 57 1020.4
20260831140400 84 235 4.0 10.0 0.00 0.00 0.00 59 1020.5
20260831135350 84 145 2.0 10.0 0.00 0.00 0.00 59 1020.6
20260831134348 84 97 2.0 13.0 0.00 0.00 0.00 59 1020.5
20260831133346 84 156 7.0 15.0 0.00 0.00 0.00 59 1020.6
20260831132340 84 126 6.0 13.0 0.00 0.00 0.00 59 1020.5
20260831131349 84 135 5.0 14.0 0.00 0.00 0.00 60 1020.5
20260831130347 84 113 4.0 14.0 0.00 0.00 0.00 59 1020.5
20260831125404 84 165 6.0 14.0 0.00 0.00 0.00 60 1020.6
20260831124340 84 129 6.0 16.0 0.00 0.00 0.00 58 1020.7
20260831123400 84 134 8.0 15.0 0.00 0.00 0.00 57 1020.8
20260831122355 84 130 7.0 15.0 0.00 0.00 0.00 56 1020.7
20260831121353 84 190 8.0 15.0 0.00 0.00 0.00 55 1020.7
20260831120341 85 92 9.0 14.0 0.00 0.00 0.00 53 1020.8
20260831115355 85 71 5.0 14.0 0.00 0.00 0.00 53 1020.8
20260831114348 85 142 8.0 14.0 0.00 0.00 0.00 52 1020.8
20260831113349 85 168 6.0 14.0 0.00 0.00 0.00 51 1020.9
20260831112400 85 125 5.0 12.0 0.00 0.00 0.00 52 1020.9
20260831111341 85 121 4.0 14.0 0.00 0.00 0.00 51 1020.8
20260831110344 85 110 4.0 13.0 0.00 0.00 0.00 50 1021.0
20260831105353 86 118 5.0 11.0 0.00 0.00 0.00 48 1020.9
20260831104351 85 129 5.0 8.0 0.00 0.00 0.00 49 1020.9
20260831103342 85 201 5.0 8.0 0.00 0.00 0.00 50 1021.0
20260831102353 84 245 2.0 7.0 0.00 0.00 0.00 51 1021.1